Hagerstown, MD

3:36 AM EST on November 21, 2017 (GMT -0500)
Hagerstown Regional-Henson

Weather History for KHGR - September, 2014

Change the Weather History Date:

Wednesday, September 10, 2014

  Actual Average Record
Temperature  
Mean Temperature 72 °F 68 °F  
Max Temperature 78 °F 77 °F 94 °F (2016)
Min Temperature 66 °F 59 °F 48 °F (2017)
Degree Days  
Heating Degree Days 0 1  
Month to date heating degree days 0 5  
Since 1 July heating degree days 2 10  
Cooling Degree Days 7 4  
Month to date cooling degree days 94 50  
Year to date cooling degree days 907 918  
Growing Degree Days 22 (Base 50)    
Moisture  
Dew Point 63 °F    
Average Humidity 74    
Maximum Humidity 87    
Minimum Humidity 60    
Precipitation  
Precipitation 0.00 in 0.11 in 0.54 in (2015)
Month to date precipitation 1.02 0.99  
Year to date precipitation 27.93 27.62  
Sea Level Pressure  
Sea Level Pressure 30.09 in    
Wind  
Wind Speed 6 mph (SE)    
Max Wind Speed 16 mph    
Max Gust Speed 20 mph    
Visibility 10 miles    
Events      
T = Trace of Precipitation, MM = Missing Value Source: NWS Daily Summary

Daily Weather History Graph

Daily Weather History Graph

Search for Another Location

Airport or City:

Trip Planner

Search our weather history database for the weather conditions in past years. The results will help you decide how hot, cold, wet, or windy it might be!

Date:

Astronomy

Sep. 10, 2014 Rise Set
Actual Time 6:47 AM EDT 7:27 PM EDT
Civil Twilight 6:20 AM EDT 7:54 PM EDT
Nautical Twilight 5:47 AM EDT 8:26 PM EDT
Astronomical Twilight 5:14 AM EDT 9:00 PM EDT
Moon 8:25 PM EDT (9/10) 8:32 AM EDT (9/10)
Length of Visible Light 13h 34m
Length of Day
12h 40m
Waning Gibbous, 96% of the Moon is Illuminated
Sep 10
Waning Gibbous
Sep 15
Last Quarter
Sep 24
New
Oct 1
First Quarter
Oct 8
Full

Hourly Weather History & Observations

Time (EDT) Temp. Dew Point Humidity Pressure Visibility Wind Dir Wind Speed Gust Speed Precip Events Conditions
12:53 AM 68.0 °F 61.0 °F 78% 30.14 in 10.0 mi ENE 3.5 mph - N/A   Overcast
1:53 AM 68.0 °F 61.0 °F 78% 30.13 in 10.0 mi ESE 3.5 mph - N/A   Overcast
2:53 AM 66.9 °F 61.0 °F 81% 30.12 in 10.0 mi East 4.6 mph - N/A   Overcast
3:53 AM 66.9 °F 61.0 °F 81% 30.12 in 10.0 mi East 4.6 mph - N/A   Overcast
4:36 AM 66.0 °F 62.1 °F 87% 30.11 in 10.0 mi East 3.5 mph - N/A   Overcast
4:53 AM 66.0 °F 62.1 °F 87% 30.12 in 10.0 mi ESE 3.5 mph - N/A   Overcast
5:50 AM 66.2 °F 62.6 °F 88% 30.11 in 10.0 mi East 3.5 mph - N/A   Overcast
6:22 AM 66.0 °F 62.1 °F 87% 30.12 in 10.0 mi East 4.6 mph - N/A   Overcast
6:53 AM 66.0 °F 62.1 °F 87% 30.14 in 10.0 mi ESE 5.8 mph - N/A   Overcast
7:53 AM 66.0 °F 62.1 °F 87% 30.14 in 10.0 mi East 4.6 mph - N/A   Overcast
8:53 AM 66.9 °F 62.1 °F 84% 30.14 in 10.0 mi ESE 4.6 mph - N/A   Overcast
9:53 AM 68.0 °F 62.1 °F 81% 30.15 in 10.0 mi SE 3.5 mph - N/A   Overcast
10:27 AM 68.0 °F 62.1 °F 81% 30.13 in 8.0 mi South 5.8 mph - N/A   Overcast
10:53 AM 68.0 °F 63.0 °F 84% 30.16 in 6.0 mi SSE 4.6 mph - N/A   Haze
11:21 AM 69.1 °F 63.0 °F 81% 30.13 in 8.0 mi South 6.9 mph - N/A   Overcast
11:28 AM 69.1 °F 63.0 °F 81% 30.13 in 8.0 mi South 9.2 mph - N/A   Overcast
11:35 AM 69.1 °F 63.0 °F 81% 30.13 in 10.0 mi SSE 10.4 mph - N/A   Overcast
11:48 AM 69.8 °F 62.6 °F 78% 30.13 in 10.0 mi South 6.9 mph - N/A   Overcast
11:53 AM 70.0 °F 63.0 °F 78% 30.14 in 10.0 mi South 6.9 mph - N/A   Overcast
12:12 PM 70.0 °F 63.0 °F 78% 30.12 in 10.0 mi South 8.1 mph - N/A   Overcast
12:42 PM 72.0 °F 63.0 °F 73% 30.11 in 10.0 mi South 9.2 mph - N/A   Overcast
12:53 PM 72.0 °F 63.0 °F 73% 30.12 in 10.0 mi SSW 8.1 mph - N/A   Overcast
1:27 PM 75.0 °F 64.0 °F 69% 30.09 in 10.0 mi SSE 9.2 mph - N/A   Mostly Cloudy
1:53 PM 75.0 °F 64.0 °F 69% 30.10 in 10.0 mi SE 10.4 mph - N/A   Mostly Cloudy
2:04 PM 75.0 °F 63.0 °F 66% 30.08 in 10.0 mi South 9.2 mph - N/A   Mostly Cloudy
2:20 PM 75.0 °F 63.0 °F 66% 30.07 in 10.0 mi South 10.4 mph - N/A   Mostly Cloudy
2:53 PM 75.9 °F 64.0 °F 67% 30.08 in 10.0 mi South 12.7 mph - N/A   Scattered Clouds
3:53 PM 77.0 °F 63.0 °F 62% 30.05 in 10.0 mi South 12.7 mph - N/A   Partly Cloudy
4:53 PM 77.0 °F 63.0 °F 62% 30.03 in 10.0 mi South 10.4 mph - N/A   Mostly Cloudy
5:53 PM 77.0 °F 64.0 °F 64% 30.01 in 10.0 mi SSE 15.0 mph - N/A   Clear
6:53 PM 75.0 °F 64.0 °F 69% 30.00 in 10.0 mi SSE 11.5 mph - N/A   Mostly Cloudy
7:53 PM 73.0 °F 64.0 °F 73% 29.99 in 10.0 mi SE 10.4 mph - N/A   Clear
8:53 PM 72.0 °F 64.0 °F 76% 30.00 in 10.0 mi SSE 10.4 mph - N/A   Clear
9:53 PM 71.1 °F 64.0 °F 78% 30.00 in 10.0 mi SSE 8.1 mph - N/A   Clear
11:53 PM 71.1 °F 64.0 °F 78% 29.98 in 10.0 mi SSE 12.7 mph - N/A   Clear